1516323601.06,44088,7.19,71338.3,-13.25,-15.01,-15.01,0,*65
1516323602.33,44089,7.19,71346.3,-13.27,-15.01,-14.97,0,*68
1516323603.57,44090,7.19,71330.0,-13.27,-14.97,-14.89,0,*61
1516323604.81,44091,7.19,71336.8,-13.27,-14.97,-14.89,0,*60
1516323606.1,44092,7.19,71374.0,-13.25,-14.75,-14.75,0,*6E
1516323607.37,44093,7.13,71384.0,-13.27,-14.75,-14.75,0,*6D
1516323608.66,44094,7.19,71388.0,-13.25,-14.75,-14.75,0,*68
1516323609.87,44095,7.19,71392.5,-13.27,-14.69,-14.69,0,*6B
1516323611.12,44096,7.13,71380.3,-13.25,-14.69,-14.75,0,*67
1516323612.36,44097,7.19,71388.3,-13.27,-14.69,-14.83,0,*6D
1516323613.64,44098,7.19,71366.0,-13.27,-14.83,-14.83,0,*66
1516323614.91,44099,7.19,71362.5,-13.27,-14.97,-14.97,0,*67
1516323616.19,44100,7.19,71366.3,-13.29,-15.21,-15.21,0,*68
1516323617.45,44101,7.19,71294.8,-13.27,-15.43,-15.29,0,*6B
1516323618.7,44102,7.19,71360.0,-13.27,-15.35,-15.29,0,*69
1516323619.97,44103,7.19,71366.3,-13.27,-15.57,-15.57,0,*65
1516323621.27,44104,7.19,71360.3,-13.29,-15.89,-15.57,0,*6F
1516323622.51,44105,7.19,71364.5,-13.33,-16.03,-15.53,0,*60
1516323623.77,44106,7.19,71354.8,-13.29,-15.75,-15.29,0,*67
1516323625.04,44107,7.19,71358.5,-13.33,-15.35,-15.07,0,*65
1516323626.28,44108,7.19,71340.5,-13.33,-15.15,-15.07,0,*68
1516323627.54,44109,7.19,71320.0,-13.33,-15.21,-15.07,0,*6E
1516323628.79,44110,7.19,71308.5,-13.33,-15.15,-15.07,0,*61
1516323630.05,44111,7.19,71316.8,-13.33,-15.07,-14.93,0,*6F
1516323631.3,44112,7.19,71334.3,-13.33,-14.89,-14.89,0,*60
1516323632.57,44113,7.19,71334.3,-13.29,-14.83,-14.61,0,*66
1516323633.8,44114,7.19,71344.0,-13.29,-14.69,-14.61,0,*65
1516323635.04,44115,7.19,71356.0,-13.33,-14.65,-14.61,0,*63
1516323636.31,44116,7.19,71366.8,-13.29,-14.61,-14.55,0,*68
1516323637.55,44117,7.13,71378.3,-13.33,-14.65,-14.61,0,*61
1516323638.84,44118,7.19,71380.5,-13.33,-14.75,-14.75,0,*6A
1516323640.1,44119,7.19,71356.8,-13.33,-14.65,-14.75,0,*6A
1516323641.37,44120,7.19,71352.0,-13.29,-14.55,-14.65,0,*69
1516323642.66,44121,7.19,71340.5,-13.33,-14.75,-14.75,0,*60
1516323643.9,44122,7.13,71330.3,-13.35,-14.65,-14.75,0,*64
1516323645.19,44123,7.19,71342.0,-13.33,-14.79,-14.79,0,*62
1516323646.49,44124,7.19,71384.3,-13.29,-14.83,-14.97,0,*6B
1516323647.78,44125,7.19,71378.0,-13.33,-14.93,-15.01,0,*6E
1516323649.06,44126,7.19,71358.8,-13.33,-15.01,-14.93,0,*6D
1516323650.33,44127,7.19,71294.3,-13.33,-14.93,-14.89,0,*6D
1516323651.62,44128,7.19,71306.3,-13.33,-15.01,-14.93,0,*63
1516323652.86,44129,7.19,71330.8,-13.29,-14.89,-14.89,0,*63
1516323654.13,44130,7.19,71282.3,-13.33,-14.93,-14.89,0,*6B
1516323655.42,44131,7.19,71302.5,-13.33,-14.93,-14.79,0,*65
1516323656.66,44132,7.19,71330.5,-13.33,-14.89,-14.89,0,*62
1516323657.95,44133,7.19,71322.8,-13.33,-14.79,-14.75,0,*6F
1516323659.25,44134,7.19,71318.0,-13.29,-14.83,-14.75,0,*66
1516323660.51,44135,7.19,71354.0,-13.33,-14.65,-14.51,0,*62
1516323661.81,44136,7.19,71356.5,-13.33,-14.51,-14.51,0,*66
1516323663.09,44137,7.19,71360.3,-13.33,-14.51,-14.61,0,*64
1516323664.39,44138,7.19,71370.0,-13.29,-14.47,-14.47,0,*63
1516323665.65,44139,7.19,71372.0,-13.29,-14.33,-14.43,0,*65
1516323666.95,44140,7.19,71378.8,-13.33,-14.47,-14.51,0,*60
1516323668.2,44141,7.19,71386.8,-13.33,-14.61,-14.61,0,*66
1516323669.44,44142,7.19,71382.3,-13.33,-14.61,-14.65,0,*61
1516323670.67,44143,7.19,71380.3,-13.29,-14.69,-14.69,0,*6F
1516323671.94,44144,7.19,71374.8,-13.33,-14.75,-14.65,0,*62
1516323673.18,44145,7.19,71374.0,-13.29,-14.61,-14.69,0,*61
1516323674.41,44146,7.19,71388.8,-13.29,-14.69,-14.69,0,*6A
1516323675.67,44147,7.19,71396.0,-13.29,-14.75,-14.61,0,*6E
1516323676.96,44148,7.19,71376.5,-13.29,-14.75,-14.83,0,*6D
1516323678.22,44149,7.19,71370.0,-13.29,-14.97,-14.89,0,*6A
1516323679.49,44150,7.19,71364.5,-13.33,-15.07,-15.01,0,*60
1516323680.73,44151,7.19,71330.5,-13.33,-15.15,-15.07,0,*64
1516323681.98,44152,7.19,71350.8,-13.33,-15.25,-15.07,0,*64
1516323683.25,44153,7.19,71344.5,-13.33,-15.15,-15.01,0,*60
1516323684.51,44154,7.19,71352.8,-13.29,-15.11,-14.97,0,*66
1516323685.8,44155,7.19,71346.0,-13.33,-15.21,-15.01,0,*61
1516323687.06,44156,7.19,71330.3,-13.33,-15.21,-15.15,0,*67
1516323688.31,44157,7.19,71344.0,-13.33,-15.25,-15.15,0,*62
1516323689.55,44158,7.19,71338.3,-13.35,-15.25,-15.21,0,*6C
1516323690.79,44159,7.19,71332.3,-13.35,-15.15,-15.01,0,*6C
1516323692.03,44160,7.19,71326.8,-13.35,-15.07,-15.01,0,*65
1516323693.26,44161,7.19,71322.3,-13.37,-15.11,-15.07,0,*67
1516323694.5,44162,7.19,71294.8,-13.35,-14.93,-14.89,0,*6A
1516323695.76,44163,7.19,71308.5,-13.35,-15.01,-15.01,0,*60
1516323697.03,44164,7.19,71314.5,-13.37,-15.07,-14.97,0,*6D
1516323698.29,44165,7.19,71324.8,-13.35,-14.93,-14.93,0,*66
1516323699.53,44166,7.19,71334.8,-13.35,-14.89,-14.75,0,*66
1516323700.77,44167,7.19,71330.8,-13.35,-14.89,-14.79,0,*6B
1516323702.01,44168,7.19,71320.8,-13.35,-14.89,-14.79,0,*64
1516323703.23,44169,7.19,71320.3,-13.35,-14.89,-14.89,0,*6A
1516323704.45,44170,7.19,71322.5,-13.35,-14.89,-14.89,0,*62
1516323705.74,44171,7.19,71314.8,-13.37,-14.97,-14.83,0,*64
1516323706.98,44172,7.19,71340.0,-13.35,-14.79,-14.89,0,*6F
1516323708.25,44173,7.19,71324.5,-13.35,-14.79,-14.79,0,*61
1516323709.52,44174,7.19,71328.8,-13.35,-14.79,-14.79,0,*66
1516323710.72,44175,7.19,71350.5,-13.35,-14.69,-14.69,0,*67
1516323711.99,44176,7.19,71346.5,-13.37,-14.83,-14.69,0,*62
1516323713.25,44177,7.19,71332.3,-13.37,-14.79,-14.69,0,*66
1516323714.54,44178,7.19,71328.5,-13.37,-14.79,-14.79,0,*68
1516323715.77,44179,7.19,71332.5,-13.37,-14.69,-14.65,0,*65
1516323717.07,44180,7.19,71344.3,-13.37,-14.55,-14.55,0,*6F
1516323718.35,44181,7.19,71352.3,-13.37,-14.43,-14.43,0,*6E
1516323719.6,44182,7.19,71354.3,-13.37,-14.37,-14.37,0,*6D
1516323720.81,44183,7.19,71348.3,-13.35,-14.33,-14.37,0,*6A
1516323722.05,44184,7.19,71344.0,-13.35,-14.33,-14.43,0,*6E
1516323723.34,44185,7.19,71348.0,-13.37,-14.43,-14.51,0,*69
1516323724.63,44186,7.19,71344.8,-13.37,-14.43,-14.43,0,*69
1516323725.92,44187,7.19,71348.8,-13.37,-14.51,-14.43,0,*6B
1516323727.18,44188,7.19,71348.8,-13.37,-14.65,-14.51,0,*60
1516323728.48,44189,7.19,71354.5,-13.37,-14.51,-14.47,0,*61
1516323729.7,44190,7.19,71342.3,-13.35,-14.37,-14.37,0,*6C
1516323730.92,44191,7.19,71346.5,-13.35,-14.33,-14.23,0,*6C
1516323732.17,44192,7.19,71354.8,-13.35,-14.37,-14.47,0,*69
1516323733.41,44193,7.19,71350.3,-13.35,-14.37,-14.47,0,*68
1516323734.63,44194,7.19,71352.3,-13.35,-14.37,-14.33,0,*6C
1516323735.92,44195,7.19,71356.0,-13.37,-14.51,-14.43,0,*68
1516323737.14,44196,7.19,71358.5,-13.35,-14.33,-14.33,0,*6A
1516323738.36,44197,7.19,71356.5,-13.35,-14.33,-14.33,0,*6B
1516323739.58,44198,7.19,71362.3,-13.35,-14.23,-14.33,0,*65
1516323740.8,44199,7.19,71362.8,-13.35,-14.23,-14.33,0,*64
1516323742.04,44200,7.19,71366.3,-13.33,-14.33,-14.23,0,*61
1516323743.3,44201,7.13,71348.3,-13.33,-14.23,-14.23,0,*61
1516323744.54,44202,7.19,71348.8,-13.33,-14.33,-14.33,0,*62
1516323745.85,44203,7.19,71340.5,-13.33,-14.47,-14.47,0,*63
1516323747.14,44204,7.19,71334.0,-13.29,-14.55,-14.55,0,*6F
1516323748.41,44205,7.19,71330.3,-13.33,-14.51,-14.61,0,*66
1516323749.65,44206,7.19,71330.5,-13.33,-14.65,-14.61,0,*62
1516323750.93,44207,7.19,71344.3,-13.33,-14.51,-14.61,0,*64
1516323752.2,44208,7.19,71338.0,-13.33,-14.61,-14.51,0,*6B
1516323753.47,44209,7.19,71350.5,-13.35,-14.51,-14.47,0,*68
1516323754.69,44210,7.13,71352.5,-13.35,-14.37,-14.37,0,*67
1516323755.91,44211,7.19,71354.0,-13.35,-14.37,-14.33,0,*62
1516323757.13,44212,7.19,71342.8,-13.35,-14.33,-14.33,0,*65
1516323758.35,44213,7.19,71344.5,-13.35,-14.23,-14.23,0,*64
1516323759.57,44214,7.13,71344.0,-13.35,-14.23,-14.19,0,*6A
1516323760.79,44215,7.13,71362.3,-13.35,-14.19,-14.19,0,*62
1516323762.02,44216,7.19,71372.8,-13.35,-14.23,-14.23,0,*61
1516323763.26,44217,7.13,71342.5,-13.33,-14.33,-14.33,0,*66
1516323764.51,44218,7.19,71332.0,-13.35,-14.37,-14.47,0,*68
1516323765.79,44219,7.19,71304.8,-13.33,-14.37,-14.47,0,*6F
1516323767.03,44220,7.19,71318.3,-13.33,-14.37,-14.37,0,*62
1516323768.28,44221,7.19,71348.8,-13.33,-14.33,-14.23,0,*62
1516323769.53,44222,7.19,71348.8,-13.33,-14.23,-14.23,0,*60
1516323770.77,44223,7.13,71346.8,-13.29,-14.29,-14.29,0,*6A
1516323772.01,44224,7.13,71358.3,-13.29,-14.29,-14.29,0,*6D
1516323773.25,44225,7.19,71386.5,-13.29,-14.29,-14.19,0,*6F
1516323774.49,44226,7.13,71356.8,-13.33,-14.37,-14.33,0,*60
1516323775.77,44227,7.13,71362.8,-13.33,-14.47,-14.37,0,*62
1516323777.01,44228,7.19,71372.5,-13.29,-14.33,-14.33,0,*61
1516323778.26,44229,7.13,71376.8,-13.33,-14.37,-14.33,0,*6F
1516323779.5,44230,7.19,71386.8,-13.29,-14.29,-14.29,0,*68
1516323780.74,44231,7.13,71390.0,-13.33,-14.33,-14.33,0,*62
1516323781.99,44232,7.19,71390.8,-13.33,-14.33,-14.23,0,*60
1516323783.24,44233,7.19,71390.5,-13.33,-14.23,-14.23,0,*60
1516323784.49,44234,7.19,71394.5,-13.33,-14.23,-14.23,0,*67
1516323785.74,44235,7.13,71388.8,-13.29,-14.15,-14.19,0,*61
1516323786.99,44236,7.13,71390.8,-13.33,-14.19,-14.23,0,*6C
1516323788.24,44237,7.19,71394.8,-13.29,-14.15,-14.19,0,*63
1516323789.49,44238,7.19,71400.3,-13.33,-14.19,-14.15,0,*67
1516323790.74,44239,7.19,71406.3,-13.29,-14.15,-14.15,0,*61
1516323791.99,44240,7.13,71396.3,-13.29,-14.15,-14.15,0,*6F
1516323793.24,44241,7.19,71396.0,-13.29,-14.19,-14.19,0,*6E
1516323794.48,44242,7.19,71392.8,-13.29,-14.19,-14.19,0,*6D
1516323795.73,44243,7.19,71394.5,-13.29,-14.19,-14.15,0,*60
1516323796.98,44244,7.19,71388.5,-13.29,-14.15,-14.15,0,*6B
1516323798.23,44245,7.19,71386.5,-13.29,-14.15,-14.19,0,*66
1516323799.48,44246,7.19,71388.5,-13.29,-14.15,-14.15,0,*69
1516323800.74,44247,7.19,71390.8,-13.29,-14.15,-14.15,0,*68
1516323801.99,44248,7.19,71392.5,-13.29,-14.15,-14.15,0,*67
1516323803.24,44249,7.19,71390.5,-13.29,-14.15,-14.15,0,*66
1516323804.49,44250,7.19,71388.3,-13.29,-14.15,-14.19,0,*62
1516323805.74,44251,7.19,71390.0,-13.29,-14.19,-14.19,0,*6F
1516323806.98,44252,7.19,71390.8,-13.29,-14.19,-14.15,0,*60
1516323808.22,44253,7.19,71386.3,-13.29,-14.29,-14.19,0,*6E
1516323809.47,44254,7.19,71384.3,-13.29,-14.19,-14.19,0,*6A
1516323810.72,44255,7.19,71386.5,-13.29,-14.15,-14.19,0,*67
1516323811.97,44256,7.19,71384.8,-13.29,-14.15,-14.19,0,*64
1516323813.22,44257,7.19,71384.3,-13.29,-14.15,-14.19,0,*65
1516323814.46,44258,7.19,71386.3,-13.29,-14.19,-14.19,0,*66
1516323815.71,44259,7.13,71384.3,-13.25,-14.19,-14.19,0,*6B
1516323816.93,44260,7.13,71386.3,-13.27,-14.29,-14.19,0,*60
1516323818.15,44261,7.19,71388.5,-13.27,-14.29,-14.33,0,*69
1516323819.37,44262,7.13,71390.3,-13.27,-14.29,-14.19,0,*62
1516323820.59,44263,7.13,71386.5,-13.27,-14.29,-14.19,0,*63
1516323821.81,44264,7.13,71376.8,-13.27,-14.33,-14.29,0,*6C
1516323823.03,44265,7.19,71372.5,-13.27,-14.33,-14.29,0,*6D
1516323824.26,44266,7.19,71368.5,-13.27,-14.19,-14.29,0,*66
1516323825.48,44267,7.19,71366.0,-13.27,-14.19,-14.19,0,*64
1516323826.71,44268,7.19,71374.8,-13.27,-14.19,-14.19,0,*6B
1516323827.93,44269,7.19,71384.5,-13.27,-14.19,-14.19,0,*6A
1516323829.17,44270,7.19,71376.8,-13.25,-14.29,-14.19,0,*63
1516323830.4,44271,7.19,71380.5,-13.27,-14.19,-14.19,0,*63
1516323831.62,44272,7.13,71382.3,-13.27,-14.19,-14.19,0,*60
1516323832.85,44273,7.19,71386.8,-13.27,-14.29,-14.19,0,*62
1516323834.07,44274,7.19,71384.8,-13.27,-14.19,-14.29,0,*65
1516323835.3,44275,7.19,71386.8,-13.27,-14.19,-14.19,0,*67
1516323836.52,44276,7.13,71386.5,-13.27,-14.19,-14.19,0,*64
1516323837.76,44277,7.19,71388.0,-13.25,-14.29,-14.19,0,*64
1516323839.0,44278,7.19,71388.5,-13.25,-14.29,-14.19,0,*6B
1516323840.22,44279,7.19,71390.3,-13.27,-14.33,-14.29,0,*60
1516323841.45,44280,7.13,71386.5,-13.27,-14.33,-14.29,0,*66
1516323842.73,44281,7.19,71388.5,-13.25,-14.43,-14.43,0,*6E
1516323844.01,44282,7.13,71380.5,-13.27,-14.55,-14.47,0,*6C
1516323845.29,44283,7.19,71372.8,-13.27,-14.47,-14.47,0,*6E
1516323846.57,44284,7.19,71372.0,-13.27,-14.55,-14.55,0,*69
1516323847.85,44285,7.19,71360.8,-13.27,-14.47,-14.47,0,*68
1516323849.15,44286,7.19,71350.8,-13.25,-14.55,-14.55,0,*69
1516323850.43,44287,7.19,71328.8,-13.27,-14.47,-14.55,0,*69
1516323851.71,44288,7.19,71344.5,-13.27,-14.55,-14.55,0,*65
1516323852.97,44289,7.19,71332.0,-13.25,-14.61,-14.55,0,*61
1516323854.22,44290,7.19,71338.3,-13.27,-14.55,-14.61,0,*6B
1516323855.5,44291,7.19,71326.0,-13.27,-14.55,-14.47,0,*6E
1516323856.78,44292,7.19,71332.0,-13.27,-14.55,-14.47,0,*6D
1516323858.05,44293,7.19,71326.0,-13.27,-14.55,-14.47,0,*6C
1516323859.31,44294,7.19,71342.8,-13.27,-14.47,-14.33,0,*6B
1516323860.61,44295,7.19,71344.3,-13.29,-14.47,-14.47,0,*67
1516323861.87,44296,7.19,71340.0,-13.27,-14.47,-14.33,0,*69
1516323863.11,44297,7.19,71350.8,-13.27,-14.33,-14.43,0,*6C
1516323864.37,44298,7.19,71354.5,-13.27,-14.43,-14.43,0,*64
1516323865.64,44299,7.19,71358.0,-13.27,-14.43,-14.43,0,*65
1516323866.93,44300,7.19,71356.0,-13.29,-14.43,-14.43,0,*6A
1516323868.21,44301,7.19,71352.3,-13.29,-14.43,-14.43,0,*6B
1516323869.51,44302,7.19,71350.5,-13.29,-14.55,-14.47,0,*6B
1516323870.8,44303,7.19,71344.5,-13.29,-14.43,-14.43,0,*69
1516323872.04,44304,7.19,71354.8,-13.29,-14.29,-14.33,0,*65
1516323873.28,44305,7.19,71352.0,-13.29,-14.33,-14.33,0,*6F
1516323874.55,44306,7.19,71354.0,-13.29,-14.43,-14.33,0,*6B
1516323875.83,44307,7.19,71350.8,-13.29,-14.43,-14.43,0,*6D
1516323877.12,44308,7.19,71348.0,-13.29,-14.43,-14.43,0,*62
1516323878.42,44309,7.19,71340.8,-13.29,-14.47,-14.47,0,*63
1516323879.69,44310,7.19,71344.3,-13.29,-14.43,-14.33,0,*6C
1516323880.96,44311,7.19,71350.0,-13.29,-14.43,-14.33,0,*6D
1516323882.24,44312,7.19,71362.0,-13.29,-14.43,-14.43,0,*69
1516323883.54,44313,7.13,71350.8,-13.29,-14.55,-14.47,0,*6B
1516323884.82,44314,7.19,71354.0,-13.27,-14.55,-14.47,0,*62
1516323886.09,44315,7.19,71356.0,-13.33,-14.51,-14.33,0,*61
1516323887.36,44316,7.13,71352.0,-13.29,-14.43,-14.33,0,*6A
1516323888.6,44317,7.13,71350.5,-13.29,-14.33,-14.33,0,*6C
1516323889.85,44318,7.19,71350.3,-13.29,-14.19,-14.19,0,*63
1516323891.09,44319,7.19,71350.3,-13.29,-14.29,-14.29,0,*62
1516323892.33,44320,7.19,71352.8,-13.29,-14.19,-14.19,0,*68
1516323893.59,44321,7.19,71336.3,-13.29,-14.33,-14.43,0,*6E
1516323894.85,44322,7.19,71332.3,-13.29,-14.33,-14.43,0,*6D
1516323896.09,44323,7.19,71328.8,-13.29,-14.33,-14.33,0,*6B
1516323897.35,44324,7.19,71334.3,-13.29,-14.33,-14.43,0,*6B
1516323898.62,44325,7.19,71314.0,-13.29,-14.43,-14.33,0,*6A
1516323899.86,44326,7.19,71324.0,-13.29,-14.33,-14.29,0,*65
1516323901.1,44327,7.19,71328.5,-13.29,-14.33,-14.33,0,*6F
1516323902.35,44328,7.19,71338.5,-13.29,-14.19,-14.29,0,*63
1516323903.59,44329,7.19,71332.8,-13.29,-14.19,-14.19,0,*61
1516323904.84,44330,7.19,71336.8,-13.29,-14.19,-14.19,0,*69
1516323906.08,44331,7.19,71338.3,-13.29,-14.19,-14.19,0,*68
1516323907.33,44332,7.13,71336.5,-13.29,-14.19,-14.19,0,*6B
1516323908.55,44333,7.19,71338.8,-13.27,-14.19,-14.29,0,*67
1516323909.8,44334,7.19,71340.8,-13.29,-14.19,-14.15,0,*61
1516323911.04,44335,7.13,71338.5,-13.27,-14.15,-14.15,0,*62
1516323912.28,44336,7.19,71340.8,-13.29,-14.15,-14.11,0,*6B
1516323913.51,44337,7.19,71346.0,-13.27,-14.15,-14.15,0,*60
1516323914.75,44338,7.13,71340.5,-13.27,-14.15,-14.15,0,*6F
1516323915.98,44339,7.19,71342.0,-13.27,-14.15,-14.15,0,*6E
1516323917.21,44340,7.19,71336.3,-13.27,-14.15,-14.15,0,*60
1516323918.46,44341,7.19,71332.5,-13.25,-14.15,-14.15,0,*63
1516323919.69,44342,7.19,71336.8,-13.27,-14.15,-14.15,0,*62
1516323920.93,44343,7.19,71338.0,-13.27,-14.15,-14.15,0,*63
1516323922.16,44344,7.13,71338.8,-13.27,-14.15,-14.15,0,*64
1516323923.4,44345,7.19,71344.8,-13.25,-14.19,-14.11,0,*6F
1516323924.63,44346,7.19,71344.5,-13.27,-14.15,-14.15,0,*66
1516323925.89,44347,7.19,71344.5,-13.25,-14.15,-14.15,0,*65
1516323927.14,44348,7.19,71348.3,-13.25,-14.15,-14.15,0,*6A
1516323928.39,44349,7.19,71350.0,-13.25,-14.15,-14.15,0,*6B
1516323929.64,44350,7.19,71350.5,-13.25,-14.15,-14.11,0,*67
1516323930.89,44351,7.13,71350.0,-13.25,-14.15,-14.15,0,*62
1516323932.14,44352,7.19,71354.0,-13.25,-14.15,-14.15,0,*61
1516323933.4,44353,7.19,71354.0,-13.25,-14.15,-14.15,0,*60
1516323934.64,44354,7.19,71356.3,-13.25,-14.11,-14.15,0,*63
1516323935.89,44355,7.19,71354.5,-13.25,-14.19,-14.15,0,*6A
1516323937.12,44356,7.19,71354.3,-13.27,-14.19,-14.15,0,*6B
1516323938.37,44357,7.19,71354.8,-13.25,-14.19,-14.15,0,*68
1516323939.62,44358,7.13,71348.3,-13.25,-14.19,-14.15,0,*67
1516323940.84,44359,7.13,71352.5,-13.27,-14.19,-14.11,0,*60
1516323942.09,44360,7.19,71362.8,-13.25,-14.19,-14.15,0,*6C
1516323943.34,44361,7.19,71362.5,-13.25,-14.19,-14.15,0,*6D
1516323944.59,44362,7.19,71362.3,-13.25,-14.19,-14.19,0,*62
1516323945.84,44363,7.19,71370.8,-13.25,-14.19,-14.15,0,*6F
1516323947.09,44364,7.19,71372.0,-13.25,-14.19,-14.15,0,*68
1516323948.34,44365,7.19,71380.5,-13.25,-14.19,-14.15,0,*69
1516323949.58,44366,7.19,71382.5,-13.25,-14.29,-14.15,0,*69
1516323950.83,44367,7.19,71388.0,-13.25,-14.19,-14.19,0,*67
1516323952.06,44368,7.19,71388.3,-13.27,-14.15,-14.15,0,*6A
1516323953.29,44369,7.19,71380.5,-13.27,-14.15,-14.15,0,*6B
1516323954.52,44370,7.19,71386.0,-13.27,-14.19,-14.29,0,*60
1516323955.76,44371,7.19,71380.3,-13.25,-14.19,-14.19,0,*60
1516323957.01,44372,7.19,71382.0,-13.25,-14.15,-14.19,0,*6F
1516323958.26,44373,7.19,71376.3,-13.25,-14.11,-14.15,0,*66
1516323959.51,44374,7.19,71378.0,-13.25,-14.15,-14.19,0,*69
1516323960.76,44375,7.19,71374.0,-13.25,-14.15,-14.19,0,*68
1516323962.01,44376,7.19,71374.8,-13.25,-14.15,-14.15,0,*67
1516323963.26,44377,7.13,71374.3,-13.25,-14.15,-14.15,0,*66
1516323964.52,44378,7.19,71376.3,-13.25,-14.15,-14.19,0,*65
1516323965.76,44379,7.19,71376.8,-13.25,-14.19,-14.19,0,*68
1516323967.01,44380,7.19,71378.5,-13.25,-14.19,-14.19,0,*6E
1516323968.29,44381,7.19,71380.8,-13.25,-14.15,-14.01,0,*6A
1516323969.54,44382,7.19,71384.3,-13.25,-14.15,-14.15,0,*6C
1516323970.76,44383,7.19,71384.3,-13.23,-14.11,-14.11,0,*6B
1516323972.0,44384,7.19,71386.3,-13.25,-14.19,-14.11,0,*62
1516323973.23,44385,7.19,71384.5,-13.27,-14.11,-14.15,0,*6D
1516323974.48,44386,7.13,71382.3,-13.25,-14.15,-14.15,0,*68
1516323975.73,44387,7.19,71380.0,-13.25,-14.11,-14.15,0,*6D
1516323976.97,44388,7.19,71376.8,-13.23,-14.05,-14.11,0,*65
1516323978.19,44389,7.19,71374.3,-13.23,-14.11,-14.11,0,*61
1516323979.43,44390,7.19,71366.5,-13.21,-14.11,-14.11,0,*6B
1516323980.65,44391,7.19,71370.5,-13.23,-14.11,-14.11,0,*68
1516323981.86,44392,7.19,71368.8,-13.23,-14.11,-14.11,0,*6B
1516323983.08,44393,7.19,71372.5,-13.23,-14.11,-14.11,0,*6A
1516323984.3,44394,7.19,71370.3,-13.23,-14.15,-14.11,0,*69
1516323985.52,44395,7.19,71366.8,-13.23,-14.15,-14.11,0,*68
1516323986.75,44396,7.19,71368.0,-13.23,-14.11,-14.15,0,*6B
1516323987.97,44397,7.19,71372.5,-13.23,-14.11,-14.15,0,*6A
1516323989.2,44398,7.19,71374.5,-13.23,-14.15,-14.15,0,*61
1516323990.43,44399,7.19,71376.8,-13.23,-14.15,-14.15,0,*60
1516323991.66,44400,7.19,71374.5,-13.23,-14.15,-14.15,0,*67
1516323992.89,44401,7.19,71374.0,-13.23,-14.15,-14.15,0,*66
1516323994.11,44402,7.19,71376.5,-13.23,-14.23,-14.23,0,*65
1516323995.34,44403,7.19,71372.3,-13.23,-14.15,-14.15,0,*64
1516323996.57,44404,7.19,71376.8,-13.23,-14.15,-14.15,0,*63
1516323997.82,44405,7.19,71380.8,-13.21,-14.15,-14.15,0,*60
1516323999.05,44406,7.19,71382.8,-13.23,-14.15,-14.15,0,*61
1516324000.28,44407,7.19,71396.3,-13.23,-14.15,-14.15,0,*60
1516324001.51,44408,7.19,71400.0,-13.23,-14.15,-14.15,0,*6F
1516324002.73,44409,7.19,71406.3,-13.23,-14.15,-14.15,0,*6E
1516324003.96,44410,7.19,71404.5,-13.23,-14.15,-14.15,0,*66
1516324005.19,44411,7.19,71406.5,-13.23,-14.15,-14.15,0,*67
1516324006.42,44412,7.19,71412.3,-13.23,-14.15,-14.23,0,*61
1516324007.65,44413,7.19,71404.8,-13.23,-14.15,-14.23,0,*60
1516324008.89,44414,7.19,71414.8,-13.21,-14.23,-14.29,0,*6A
1516324010.12,44415,7.19,71416.3,-13.23,-14.15,-14.29,0,*6C
1516324011.34,44416,7.19,71418.0,-13.23,-14.23,-14.37,0,*65
1516324012.57,44417,7.19,71408.5,-13.23,-14.15,-14.23,0,*64
1516324013.82,44418,7.19,71392.0,-13.21,-14.15,-14.15,0,*6C
1516324015.05,44419,7.19,71398.0,-13.23,-14.15,-14.15,0,*6F
1516324016.3,44420,7.19,71406.3,-13.21,-14.23,-14.15,0,*62
1516324017.55,44421,7.19,71400.8,-13.21,-14.15,-14.23,0,*63
1516324018.77,44422,7.19,71390.5,-13.23,-14.23,-14.37,0,*62
1516324020.05,44423,7.19,71384.0,-13.23,-14.51,-14.51,0,*66
1516324021.29,44424,7.19,71380.0,-13.23,-14.65,-14.55,0,*62
1516324022.5,44425,7.13,71374.8,-13.23,-14.65,-14.65,0,*60
1516324023.71,44426,7.19,71358.3,-13.23,-14.69,-14.69,0,*63
1516324024.95,44427,7.19,71372.3,-13.23,-14.55,-14.69,0,*6D
1516324026.19,44428,7.19,71372.3,-13.25,-14.69,-14.65,0,*67
1516324027.43,44429,7.19,71368.8,-13.25,-14.61,-14.61,0,*6A
1516324028.67,44430,7.19,71366.0,-13.25,-14.61,-14.69,0,*6A
1516324029.91,44431,7.19,71352.3,-13.25,-14.61,-14.61,0,*63
1516324031.16,44432,7.19,71344.5,-13.25,-14.69,-14.75,0,*6D
1516324032.39,44433,7.19,71336.8,-13.27,-14.89,-14.89,0,*63
1516324033.65,44434,7.19,71342.0,-13.25,-14.97,-14.89,0,*69
1516324034.96,44435,7.19,71360.5,-13.25,-14.47,-14.47,0,*67
1516324036.22,44436,7.19,71366.5,-13.25,-14.33,-14.43,0,*63
1516324037.52,44437,7.13,71368.0,-13.25,-14.43,-14.47,0,*61
1516324038.78,44438,7.19,71378.8,-13.25,-14.61,-14.55,0,*6D
1516324040.05,44439,7.19,71372.8,-13.25,-14.61,-14.55,0,*6C
1516324041.29,44440,7.19,71372.0,-13.27,-14.61,-14.55,0,*60
1516324042.54,44441,7.19,71368.3,-13.27,-14.61,-14.55,0,*61
1516324043.81,44442,7.19,71370.0,-13.27,-14.55,-14.55,0,*65
1516324045.05,44443,7.19,71354.0,-13.25,-14.61,-14.69,0,*6E
1516324046.29,44444,7.19,71352.8,-13.27,-14.75,-14.69,0,*6E
1516324047.55,44445,7.19,71372.8,-13.27,-14.75,-14.75,0,*62
1516324048.82,44446,7.19,71368.5,-13.27,-14.75,-14.75,0,*61
1516324050.06,44447,7.19,71358.8,-13.27,-14.75,-14.69,0,*6D
1516324051.3,44448,7.19,71352.0,-13.25,-14.69,-14.61,0,*65
1516324052.51,44449,7.19,71272.3,-13.27,-14.69,-14.69,0,*6E
1516324053.75,44450,7.19,71280.3,-13.25,-14.61,-14.61,0,*64
1516324054.97,44451,7.19,71306.0,-13.27,-14.61,-14.61,0,*67
1516324056.21,44452,7.19,71326.8,-13.27,-14.61,-14.55,0,*63
1516324057.46,44453,7.19,71320.8,-13.27,-14.61,-14.47,0,*61
1516324058.73,44454,7.19,71340.5,-13.27,-14.47,-14.43,0,*66
1516324060.01,44455,7.19,71348.3,-13.27,-14.43,-14.47,0,*67
1516324061.29,44456,7.19,71322.0,-13.27,-14.47,-14.43,0,*64
1516324062.56,44457,7.19,71300.8,-13.27,-14.47,-14.43,0,*65
1516324063.81,44458,7.19,71288.8,-13.27,-14.43,-14.33,0,*69
1516324065.03,44459,7.19,71300.3,-13.27,-14.29,-14.33,0,*64
1516324066.27,44460,7.19,71320.0,-13.27,-14.43,-14.33,0,*62
1516324067.52,44461,7.19,71338.3,-13.27,-14.43,-14.33,0,*63
1516324068.74,44462,7.19,71336.8,-13.27,-14.33,-14.29,0,*6C
1516324069.99,44463,7.19,71346.3,-13.27,-14.43,-14.33,0,*61
1516324071.28,44464,7.19,71336.8,-13.25,-14.47,-14.43,0,*67
1516324072.56,44465,7.19,71324.5,-13.27,-14.55,-14.55,0,*60
1516324073.83,44466,7.19,71322.0,-13.27,-14.55,-14.55,0,*63
1516324075.07,44467,7.19,71300.5,-13.25,-14.61,-14.69,0,*68
1516324076.34,44468,7.19,71322.8,-13.29,-14.47,-14.61,0,*67
1516324077.64,44469,7.19,71340.8,-13.29,-14.43,-14.47,0,*66
1516324078.9,44470,7.19,71358.0,-13.29,-14.33,-14.43,0,*6D
1516324080.15,44471,7.19,71362.8,-13.27,-14.43,-14.33,0,*62
1516324081.43,44472,7.19,71350.5,-13.27,-14.47,-14.47,0,*66
1516324082.65,44473,7.19,71334.8,-13.27,-14.61,-14.61,0,*67
1516324083.89,44474,7.19,71308.3,-13.27,-14.69,-14.75,0,*6D
1516324085.18,44475,7.19,71294.5,-13.29,-14.83,-14.75,0,*66
1516324086.47,44476,7.19,71264.0,-13.29,-14.75,-14.83,0,*65
1516324087.77,44477,7.19,71282.3,-13.29,-14.83,-14.83,0,*6D
1516324089.03,44478,7.19,71284.8,-13.25,-14.75,-14.69,0,*63
1516324090.26,44479,7.19,71278.3,-13.29,-14.69,-14.61,0,*6B
1516324091.5,44480,7.19,71348.3,-13.29,-14.69,-14.61,0,*6D
1516324092.79,44481,7.19,71338.5,-13.33,-14.75,-14.75,0,*6F
1516324094.06,44482,7.19,71332.5,-13.29,-14.83,-14.89,0,*6D
1516324095.33,44483,7.19,71320.8,-13.33,-14.93,-14.89,0,*66
1516324096.6,44484,7.19,71310.5,-13.33,-14.93,-14.89,0,*61
1516324097.88,44485,7.19,71312.8,-13.33,-14.93,-14.93,0,*6B
1516324099.15,44486,7.19,71284.3,-13.33,-14.93,-14.89,0,*63
1516324100.44,44487,7.19,71300.0,-13.33,-14.93,-14.93,0,*69